Batchpc has 13867 registered users
Userlist
# Status Avatar Username Posts Karma Join date Last login Hits
10351 OFFLINE destlenmumuzztusi's Avatar destlenmumuzztusi 0 0 25 Jul 2019 01:09 26 Jul 2019 15:50 128
10352 OFFLINE psicfundmicciphese's Avatar psicfundmicciphese 0 0 25 Jul 2019 01:22 27 Jul 2019 05:39 128
10353 OFFLINE endewardarifull's Avatar endewardarifull 0 0 25 Jul 2019 01:28 26 Jul 2019 15:55 107
10354 OFFLINE karssorilenaden's Avatar karssorilenaden 0 0 25 Jul 2019 01:29 25 Jul 2019 01:32 117
10355 OFFLINE riasiratersoza's Avatar riasiratersoza 0 0 25 Jul 2019 01:45 27 Jul 2019 05:44 132
10356 OFFLINE solnowebpapimna's Avatar solnowebpapimna 0 0 25 Jul 2019 01:48 26 Jul 2019 16:00 145
10357 OFFLINE dyspkannlidwiewelsatt's Avatar dyspkannlidwiewelsatt 0 0 25 Jul 2019 02:04 27 Jul 2019 05:50 139
10358 OFFLINE mladoccantinescong's Avatar mladoccantinescong 0 0 25 Jul 2019 02:05 26 Jul 2019 16:06 130
10359 OFFLINE buposrepergihun's Avatar buposrepergihun 0 0 25 Jul 2019 02:08 25 Jul 2019 02:18 119
10360 OFFLINE ciaskininfusworlsis's Avatar ciaskininfusworlsis 0 0 25 Jul 2019 02:23 26 Jul 2019 16:13 119
10361 OFFLINE skytsigodsnorfebec's Avatar skytsigodsnorfebec 0 0 25 Jul 2019 02:24 27 Jul 2019 05:54 129
10362 OFFLINE warmertniraracfont's Avatar warmertniraracfont 0 0 25 Jul 2019 02:29 25 Jul 2019 02:37 128
10363 OFFLINE jintdelmimorichgai's Avatar jintdelmimorichgai 0 0 25 Jul 2019 02:50 25 Jul 2019 02:58 127
10364 OFFLINE ernlichinatadpe's Avatar ernlichinatadpe 0 0 25 Jul 2019 03:07 27 Jul 2019 05:59 120
10365 OFFLINE dordecourthadoterp's Avatar dordecourthadoterp 0 0 25 Jul 2019 03:07 26 Jul 2019 16:25 362
10366 OFFLINE nistemppacosupplo's Avatar nistemppacosupplo 0 0 25 Jul 2019 03:09 25 Jul 2019 03:10 112
10367 OFFLINE contlalipilmeotrif's Avatar contlalipilmeotrif 0 0 25 Jul 2019 03:23 27 Jul 2019 06:05 112
10368 OFFLINE niwordiucirmoboo's Avatar niwordiucirmoboo 0 0 25 Jul 2019 03:29 26 Jul 2019 16:31 141
10369 OFFLINE granacelersmarin's Avatar granacelersmarin 0 0 25 Jul 2019 03:31 25 Jul 2019 06:15 130
10370 OFFLINE salvcibetighmarva's Avatar salvcibetighmarva 0 0 25 Jul 2019 03:42 27 Jul 2019 06:10 99
10371 OFFLINE flocimbinohandtent's Avatar flocimbinohandtent 0 0 25 Jul 2019 03:50 25 Jul 2019 03:58 118
10372 OFFLINE vocuwornirabja's Avatar vocuwornirabja 0 0 25 Jul 2019 03:53 26 Jul 2019 16:36 124
10373 OFFLINE tewordnegguehuroo's Avatar tewordnegguehuroo 0 0 25 Jul 2019 04:01 27 Jul 2019 06:15 114
10374 OFFLINE neuprocizininen's Avatar neuprocizininen 0 0 25 Jul 2019 04:11 26 Jul 2019 16:42 102
10375 OFFLINE truccontcounlordmoma's Avatar truccontcounlordmoma 0 0 25 Jul 2019 04:20 27 Jul 2019 06:20 136
10376 OFFLINE letthenicafallte's Avatar letthenicafallte 0 0 25 Jul 2019 04:28 25 Jul 2019 04:33 97
10377 OFFLINE drugorperletipi's Avatar drugorperletipi 0 0 25 Jul 2019 04:29 26 Jul 2019 16:48 122
10378 OFFLINE minbuiwedtedora's Avatar minbuiwedtedora 0 0 25 Jul 2019 04:43 27 Jul 2019 06:26 130
10379 OFFLINE cornhorreicandisctwit's Avatar cornhorreicandisctwit 0 0 25 Jul 2019 05:02 27 Jul 2019 06:31 112
10380 OFFLINE wartekingcawilvey's Avatar wartekingcawilvey 0 0 25 Jul 2019 06:02 06 Aug 2019 02:34 134
Who Is Online
Total users online: 0 Members and 8 Guests Online